Location: Bonny Doon Airfield
(37.0704°N, 122.1252°W)
Time: 19:41:04
(UTC-08:00)

Vanguard 1 Rocket - Pass Details

Date: 24 October 2017
Orbit: 655 x 4222 km, 34.3° (Epoch: 21 November)

Event Time Altitude Azimuth Distance (km) Brightness Sun altitude
Rises 06:06:27 0° 233° (SW) 6,634 - -16.3°
Exits shadow 06:06:51 - 233° (SW) 6,519 11.3 -16.2°
Reaches altitude 10° 06:11:52 10° 228° (SW) 5,014 10.8 -15.2°
Maximum altitude 06:23:26 44° 163° (SSE) 1,917 9.2 -12.9°
Drops below altitude 10° 06:29:48 10° 92° (E) 2,792 11.5 -11.7°
Sets 06:31:58 0° 85° (E) 3,506 12.3 -11.3°
